EW3804 Weather Reports


time (UTC)temp
F
wind
direction
speed
knots
gust
knots
rain 1hr
in
rain 24hr
in
rain mn
in
humidity
%
barometer
mb
20260502193019 75 61 0.0 0.0 0.00 0.01 0.00 41 1013.7
20260502191518 75 24 0.0 0.0 0.00 0.01 0.00 42 1013.7
20260502190017 74 14 0.0 0.0 0.00 0.01 0.00 38 1013.9
20260502184520 74 17 0.0 0.9 0.00 0.01 0.00 42 1014.2
20260502183031 73 58 0.0 0.0 0.00 0.01 0.00 43 1014.5
20260502181517 73 312 0.0 0.9 0.00 0.01 0.00 50 1014.7
20260502163057 68 252 0.0 0.0 0.00 0.01 0.00 55 1015.9
20260502161553 67 313 0.0 0.0 0.00 0.01 0.00 61 1015.8
20260502151554 65 304 0.0 0.0 0.00 0.01 0.00 62 1015.7
20260502123014 0 0.0 0.0 0.00 0.01 0.00 1014.3
20260502121505 0 0.0 0.0 0.00 0.01 0.00 1014.0
20260502114606 0 0.0 0.0 0.00 0.01 0.00 1013.5
20260502113050 0 0.0 0.0 0.00 0.01 0.00 1013.2
20260502111551 0 0.0 0.0 0.00 0.01 0.00 1013.0
20260502110040 0 0.0 0.0 0.00 0.01 0.00 1012.7
20260502104546 0 0.0 0.0 0.00 0.01 0.00 1012.5
20260502103035 0 0.0 0.0 0.00 0.01 0.00 1012.3
20260502101543 48 312 0.0 0.0 0.00 0.01 0.00 93 1012.3
20260502091518 50 314 0.0 0.0 0.00 0.01 0.00 93 1012.2
20260502071506 52 311 0.0 0.0 0.00 0.01 0.00 91 1012.0
20260502070007 52 333 0.0 0.0 0.00 0.01 0.00 91 1011.9
20260502064502 52 319 0.0 0.0 0.00 0.01 0.00 91 1012.0
20260502063107 53 314 0.0 0.0 0.00 0.01 0.00 90 1012.1
20260502061607 53 344 0.0 0.0 0.00 0.01 0.00 90 1012.0
20260502060055 54 323 0.0 0.0 0.00 0.01 0.00 90 1012.1
20260502054557 54 345 0.0 0.0 0.00 0.01 0.00 90 1012.0
20260502053053 54 348 0.0 0.0 0.01 0.01 0.00 90 1012.0
20260502051617 54 334 0.0 0.9 0.01 0.01 0.00 89 1011.9
20260502050048 54 334 0.0 0.9 0.01 0.01 0.00 89 1011.9
20260502044548 54 333 0.0 0.0 0.01 0.01 0.01 88 1012.0
20260502043048 55 356 0.0 0.0 0.00 0.00 0.00 87 1011.7
20260502041544 55 318 0.0 0.0 0.00 0.00 0.00 88 1011.5
20260502040053 55 319 0.0 0.0 0.00 0.00 0.00 87 1011.6
20260502034542 56 15 0.0 0.0 0.00 0.04 0.00 86 1011.5
20260502033043 56 30 0.0 0.0 0.00 0.04 0.00 85 1011.5
20260502031541 57 24 0.0 0.0 0.00 0.04 0.00 84 1011.5
20260502030039 57 46 0.0 0.0 0.00 0.04 0.00 84 1011.2
20260502024540 57 313 0.0 0.0 0.00 0.04 0.00 84 1011.1
20260502023047 57 13 0.0 0.0 0.00 0.04 0.00 83 1011.0
20260502021534 57 20 0.0 0.0 0.00 0.04 0.00 83 1010.7
20260502020037 57 25 0.0 0.0 0.00 0.04 0.00 83 1010.2
20260502014530 57 27 0.0 0.0 0.00 0.04 0.00 82 1010.0
20260502013042 57 4 0.0 0.0 0.00 0.04 0.00 81 1009.9
20260502011526 58 14 0.0 0.0 0.00 0.04 0.00 80 1009.6
20260502010023 58 56 0.0 0.0 0.00 0.04 0.00 77 1009.3
20260502004522 58 16 0.0 0.0 0.00 0.04 0.00 77 1008.9
20260502003022 58 51 0.0 0.0 0.00 0.04 0.00 79 1008.8
20260502001522 59 18 0.0 0.0 0.00 0.04 0.00 77 1008.7
20260502000021 59 37 0.0 0.0 0.00 0.04 0.00 76 1008.6
20260501234520 60 72 0.0 0.0 0.00 0.04 0.00 75 1008.2
20260501233022 59 41 0.0 0.0 0.00 0.04 0.00 77 1008.1
20260501231516 58 24 0.0 0.0 0.00 0.04 0.00 78 1008.4
20260501230016 58 27 0.0 0.0 0.00 0.04 0.00 76 1008.2
20260501224515 58 38 0.0 0.0 0.00 0.04 0.00 78 1008.4
20260501223013 58 30 0.0 0.0 0.00 0.04 0.00 82 1008.0
20260501221513 58 44 0.0 0.0 0.00 0.04 0.00 83 1007.9
20260501220021 58 24 0.0 0.0 0.00 0.04 0.00 82 1007.4
20260501214510 58 351 0.0 0.0 0.00 0.04 0.00 83 1007.0
20260501213010 57 312 0.0 0.0 0.00 0.04 0.00 85 1007.2
20260501211509 56 25 0.0 0.0 0.00 0.04 0.00 86 1006.9
20260501210011 56 45 0.0 0.0 0.00 0.05 0.00 87 1007.1
20260501204506 57 6 0.0 0.0 0.00 0.05 0.00 92 1007.2
20260501203008 56 341 0.0 0.0 0.00 0.05 0.00 93 1007.1
20260501201503 55 50 0.0 0.0 0.00 0.05 0.00 94 1007.2
20260501200003 55 20 0.0 0.0 0.00 0.07 0.00 95 1007.0
20260501194505 56 32 0.0 0.0 0.00 0.07 0.00 95 1006.5